Location: Gandikunta
(16.3784°N, 80.8378°E)
Time: 21:38:02
(UTC+00:00)

NOAA 6 - Pass Details

Date: 19 May 2025
Orbit: 768 x 780 km, 98.6° (Epoch: 18 June)

Event Time Altitude Azimuth Distance (km) Brightness Sun altitude
Rises 13:44:47 0° 173° (S) 3,225 6.9 -10.4°
Reaches altitude 10° 13:47:06 10° 176° (S) 2,300 6.2 -11.0°
Maximum altitude 13:52:08 67° 258° (WSW) 832 4.4 -12.0°
Drops below altitude 10° 13:57:11 10° 341° (NNW) 2,308 7.1 -13.1°
Sets 13:59:30 0° 344° (NNW) 3,237 7.9 -13.6°
